Montreal Mirabel, Ontario

1:02 PM EDT on April 25, 2017 (GMT -0400)
Montreal International (Mirabel)

Weather History for CYMX - July, 2013

Change the Weather History Date:

Saturday, July 13, 2013

  Actual Average Record
Temperature  
Mean Temperature 68 °F -  
Max Temperature 84 °F 74 °F 89 °F (2012)
Min Temperature 51 °F 57 °F 51 °F (2013)
Cooling Degree Days 2    
Growing Degree Days 18 (Base 50)    
Moisture  
Dew Point 60 °F    
Average Humidity 74    
Maximum Humidity 100    
Minimum Humidity 45    
Precipitation  
Precipitation 0.00 in - - ()
Sea Level Pressure  
Sea Level Pressure 30.27 in    
Wind  
Wind Speed 3 mph ()    
Max Wind Speed 7 mph    
Max Gust Speed -    
Visibility 20.0 miles    
Events Fog    
Averages and records for this station are not official NWS values.
T = Trace of Precipitation, MM = Missing Value Source: Averaged Metar Reports

Daily Weather History Graph

Daily Weather History Graph

Search for Another Location

Airport or City:

Trip Planner

Search our weather history database for the weather conditions in past years. The results will help you decide how hot, cold, wet, or windy it might be!

Date:

Astronomy

Jul. 13, 2013 Rise Set
Actual Time 5:19 AM EDT 8:43 PM EDT
Civil Twilight 4:42 AM EDT 9:20 PM EDT
Nautical Twilight 3:54 AM EDT 10:08 PM EDT
Astronomical Twilight 2:52 AM EDT 11:09 PM EDT
Moon 10:52 AM EDT (7/13) 11:02 PM EDT (7/13)
Length of Visible Light 16h 37m
Length of Day
15h 24m
Waxing Crescent, 25% of the Moon is Illuminated
Jul 13
Waxing Crescent
Jul 15
First Quarter
Jul 22
Full
Jul 29
Last Quarter
Aug 6
New

Hourly Weather History & Observations

Time (EDT) Temp. Heat Index Dew Point Humidity Pressure Visibility Wind Dir Wind Speed Gust Speed Precip Events Conditions
12:00 AM 59.0 °F - 55.4 °F 88% 30.24 in 20.0 mi NNW 2.3 mph - N/A   Scattered Clouds
1:00 AM 55.4 °F - 53.6 °F 94% 30.26 in 20.0 mi North 2.3 mph - N/A   Partly Cloudy
2:00 AM 55.4 °F - 55.4 °F 100% 30.25 in 20.0 mi Calm Calm - N/A   Partly Cloudy
3:00 AM 53.6 °F - 53.6 °F 100% 30.24 in 20.0 mi NW 2.3 mph - N/A   Partly Cloudy
4:00 AM 53.6 °F - 53.6 °F 100% 30.25 in 20.0 mi North 2.3 mph - N/A   Partly Cloudy
5:00 AM 51.8 °F - 51.8 °F 100% 30.26 in 20.0 mi Calm Calm - N/A Fog Patches of Fog
6:00 AM 55.4 °F - 53.6 °F 94% 30.28 in 25.0 mi NNE 5.8 mph - N/A   Partly Cloudy
7:00 AM 59.0 °F - 55.4 °F 88% 30.29 in 25.0 mi NNE 3.5 mph - N/A   Partly Cloudy
8:00 AM 64.4 °F - 57.2 °F 77% 30.31 in 25.0 mi North 4.6 mph - N/A   Partly Cloudy
9:00 AM 71.6 °F - 59.0 °F 64% 30.31 in 25.0 mi ENE 5.8 mph - N/A   Partly Cloudy
10:00 AM 73.4 °F - 60.8 °F 65% 30.31 in 25.0 mi NE 4.6 mph - N/A   Partly Cloudy
11:00 AM 77.0 °F - 57.2 °F 50% 30.30 in 25.0 mi East 4.6 mph - N/A   Partly Cloudy
12:00 PM 78.8 °F - 59.0 °F 51% 30.29 in 25.0 mi SE 6.9 mph - N/A   Partly Cloudy
1:00 PM 80.6 °F 80.8 °F 57.2 °F 45% 30.28 in 25.0 mi East 2.3 mph - N/A   Partly Cloudy
2:00 PM 82.4 °F 82.5 °F 59.0 °F 45% 30.27 in 35.0 mi Calm Calm - N/A   Partly Cloudy
3:00 PM 84.2 °F 85.6 °F 64.4 °F 51% 30.26 in 35.0 mi South 3.5 mph - N/A   Partly Cloudy
4:00 PM 84.2 °F 85.0 °F 62.6 °F 48% 30.25 in 35.0 mi South 5.8 mph - N/A   Partly Cloudy
5:00 PM 84.2 °F 85.6 °F 64.4 °F 51% 30.25 in 35.0 mi Calm Calm - N/A   Partly Cloudy
6:00 PM 82.4 °F 84.6 °F 66.2 °F 58% 30.24 in 45.0 mi South 4.6 mph - N/A   Partly Cloudy
7:00 PM 80.6 °F 83.2 °F 68.0 °F 65% 30.24 in 45.0 mi SSW 3.5 mph - N/A   Partly Cloudy
8:00 PM 77.0 °F - 68.0 °F 74% 30.25 in 45.0 mi South 3.5 mph - N/A   Partly Cloudy
9:00 PM 71.6 °F - 66.2 °F 83% 30.25 in 25.0 mi South 4.6 mph - N/A   Partly Cloudy
10:00 PM 68.0 °F - 64.4 °F 88% 30.26 in 25.0 mi South 3.5 mph - N/A   Partly Cloudy
11:00 PM 66.2 °F - 62.6 °F 88% 30.27 in 25.0 mi Calm Calm - N/A   Partly Cloudy